timestamp,wind_dir_avg,wind_spd_avg,wind_spd_max_dir,wind_spd_gust,battery_voltage,lat,long
2022-04-12 00:04:01+00:00,342.0,13.25,342.0,15.44,12.33,47.59359,-54.27349
2022-04-12 00:14:01+00:00,348.0,12.67,352.0,15.57,12.25,47.59359,-54.27349
2022-04-12 00:24:01+00:00,344.0,11.48,352.0,14.91,12.25,47.59359,-54.27349
2022-04-12 00:34:01+00:00,336.0,11.06,330.0,14.27,12.25,47.59359,-54.27349
2022-04-12 00:44:01+00:00,330.0,13.61,328.0,17.02,12.25,47.59359,-54.27349
2022-04-12 00:54:01+00:00,331.0,15.35,331.0,18.81,12.25,47.59359,-54.27349
2022-04-12 01:04:01+00:00,338.0,12.89,333.0,17.13,12.25,47.59359,-54.27349
2022-04-12 01:14:00+00:00,340.0,11.87,349.0,17.31,12.25,47.59359,-54.27349
2022-04-12 01:24:00+00:00,341.0,11.07,347.0,13.48,12.25,47.59359,-54.27349
2022-04-12 01:34:00+00:00,328.0,11.74,327.0,14.12,12.25,47.59359,-54.27349
2022-04-12 01:44:00+00:00,327.0,12.13,325.0,14.54,12.25,47.59359,-54.27349
2022-04-12 01:54:00+00:00,327.0,12.26,329.0,15.49,12.25,47.59359,-54.27349
2022-04-12 02:04:00+00:00,326.0,12.76,325.0,15.86,12.25,47.59359,-54.27349
2022-04-12 02:14:00+00:00,337.0,12.94,348.0,15.81,12.17,47.59359,-54.27349
2022-04-12 02:24:00+00:00,328.0,14.2,328.0,18.36,12.17,47.59359,-54.27349
2022-04-12 02:34:00+00:00,338.0,12.58,329.0,14.4,12.17,47.59359,-54.27349
2022-04-12 02:44:00+00:00,334.0,15.22,332.0,18.97,12.17,47.59359,-54.27349
2022-04-12 02:54:00+00:00,333.0,14.1,350.0,17.39,12.17,47.59359,-54.27349
2022-04-12 03:04:00+00:00,341.0,12.98,329.0,14.88,12.17,47.59359,-54.27349
2022-04-12 03:14:01+00:00,333.0,12.32,328.0,15.54,12.25,47.59359,-54.27349
2022-04-12 03:24:01+00:00,343.0,14.9,329.0,17.12,12.25,47.59359,-54.27349
2022-04-12 03:34:01+00:00,335.0,15.04,329.0,17.94,12.25,47.59359,-54.27349
2022-04-12 03:44:01+00:00,342.0,15.65,333.0,18.43,12.25,47.59359,-54.27349
2022-04-12 03:54:01+00:00,335.0,18.09,335.0,22.01,12.25,47.59359,-54.27349
2022-04-12 04:04:01+00:00,341.0,14.33,329.0,17.6,12.25,47.59359,-54.27349
2022-04-12 04:14:01+00:00,338.0,12.7,334.0,15.29,12.17,47.59359,-54.27349
2022-04-12 04:24:01+00:00,328.0,11.51,324.0,14.63,12.17,47.59359,-54.27349
2022-04-12 04:34:01+00:00,332.0,13.9,330.0,16.69,12.17,47.59359,-54.27349
2022-04-12 04:44:01+00:00,333.0,15.38,327.0,17.52,12.17,47.59359,-54.27349
2022-04-12 04:54:01+00:00,332.0,12.67,334.0,15.64,12.17,47.59359,-54.27349
2022-04-12 05:04:01+00:00,338.0,12.85,339.0,15.18,12.17,47.59359,-54.27349
2022-04-12 05:14:00+00:00,332.0,15.39,333.0,17.66,12.25,47.59359,-54.27349
2022-04-12 05:24:00+00:00,342.0,13.85,346.0,16.97,12.25,47.59359,-54.27349
2022-04-12 05:34:00+00:00,333.0,14.7,333.0,19.51,12.25,47.59359,-54.27349
2022-04-12 05:44:00+00:00,337.0,13.58,325.0,16.54,12.25,47.59359,-54.27349
2022-04-12 05:54:00+00:00,325.0,13.59,326.0,17.3,12.25,47.59359,-54.27349
2022-04-12 06:04:00+00:00,342.0,13.2,330.0,17.11,12.25,47.59359,-54.27349
2022-04-12 06:14:00+00:00,337.0,14.62,332.0,18.38,12.17,47.59359,-54.27349
2022-04-12 06:24:00+00:00,340.0,15.39,334.0,19.52,12.17,47.59359,-54.27349
2022-04-12 06:34:00+00:00,342.0,13.49,353.0,17.1,12.17,47.59359,-54.27349
2022-04-12 06:44:00+00:00,348.0,14.56,347.0,16.9,12.17,47.59359,-54.27349
2022-04-12 06:54:00+00:00,352.0,13.03,349.0,14.69,12.17,47.59359,-54.27349
2022-04-12 07:04:00+00:00,339.0,12.48,340.0,16.24,12.17,47.59359,-54.27349
2022-04-12 07:14:00+00:00,332.0,13.25,326.0,16.82,12.09,47.59359,-54.27349
2022-04-12 07:24:00+00:00,342.0,12.47,326.0,15.82,12.09,47.59359,-54.27349
2022-04-12 07:34:00+00:00,330.0,12.19,324.0,15.41,12.09,47.59359,-54.27349
2022-04-12 07:44:00+00:00,345.0,12.58,328.0,15.65,12.09,47.59359,-54.27349
2022-04-12 07:54:00+00:00,343.0,9.9,343.0,11.43,12.09,47.59359,-54.27349
2022-04-12 08:04:00+00:00,343.0,11.43,322.0,14.5,12.09,47.59359,-54.27349
2022-04-12 08:14:01+00:00,359.0,10.02,1.0,11.99,12.09,47.59359,-54.27349
2022-04-12 08:24:01+00:00,359.0,12.76,359.0,15.43,12.09,47.59359,-54.27349
2022-04-12 08:34:01+00:00,351.0,9.59,345.0,11.19,12.09,47.59359,-54.27349
2022-04-12 08:44:01+00:00,352.0,12.64,348.0,15.2,12.09,47.59359,-54.27349
2022-04-12 08:54:01+00:00,353.0,10.93,347.0,13.5,12.09,47.59359,-54.27349
2022-04-12 09:04:01+00:00,344.0,10.74,327.0,14.37,12.09,47.59359,-54.27349
2022-04-12 09:14:00+00:00,357.0,15.69,356.0,19.37,12.09,47.59359,-54.27349
2022-04-12 09:24:00+00:00,345.0,15.19,331.0,19.62,12.09,47.59359,-54.27349
2022-04-12 09:34:00+00:00,346.0,13.75,327.0,16.59,12.09,47.59359,-54.27349
2022-04-12 09:44:00+00:00,355.0,10.87,1.0,13.97,12.09,47.59359,-54.27349
2022-04-12 09:54:00+00:00,354.0,12.21,346.0,14.85,12.09,47.59359,-54.27349
2022-04-12 10:04:00+00:00,344.0,15.82,331.0,19.51,12.09,47.59359,-54.27349
2022-04-12 10:14:00+00:00,351.0,10.78,343.0,12.54,12.17,47.59359,-54.27349
2022-04-12 10:24:00+00:00,357.0,11.57,358.0,13.3,12.17,47.59359,-54.27349
2022-04-12 10:34:00+00:00,1.0,11.97,8.0,14.5,12.17,47.59359,-54.27349
2022-04-12 10:44:00+00:00,2.0,11.88,359.0,14.26,12.17,47.59359,-54.27349
2022-04-12 10:54:00+00:00,340.0,11.36,343.0,12.84,12.17,47.59359,-54.27349
2022-04-12 11:04:00+00:00,332.0,13.05,326.0,15.97,12.17,47.59359,-54.27349
2022-04-12 11:14:01+00:00,328.0,11.45,347.0,14.11,12.65,47.59359,-54.27349
2022-04-12 11:24:01+00:00,357.0,14.46,358.0,16.21,12.65,47.59359,-54.27349
2022-04-12 11:34:01+00:00,337.0,11.69,321.0,15.13,12.65,47.59359,-54.27349
2022-04-12 11:44:01+00:00,354.0,13.66,332.0,17.52,12.65,47.59359,-54.27349
2022-04-12 11:54:01+00:00,331.0,14.47,330.0,17.24,12.65,47.59359,-54.27349
2022-04-12 12:04:01+00:00,331.0,13.15,325.0,16.39,12.65,47.59359,-54.27349
2022-04-12 12:14:00+00:00,353.0,11.52,347.0,13.38,13.44,47.59359,-54.27349
2022-04-12 12:24:00+00:00,0.0,12.22,2.0,13.62,13.44,47.59359,-54.27349
2022-04-12 12:34:00+00:00,350.0,14.33,333.0,16.66,13.44,47.59359,-54.27349
2022-04-12 12:44:00+00:00,322.0,13.48,319.0,15.1,13.44,47.59359,-54.27349
2022-04-12 12:54:00+00:00,321.0,13.18,322.0,15.04,13.44,47.59359,-54.27349
2022-04-12 13:04:00+00:00,319.0,13.12,322.0,14.83,13.44,47.59359,-54.27349
2022-04-12 13:14:00+00:00,326.0,13.77,328.0,17.06,13.68,47.59359,-54.27349
2022-04-12 13:24:00+00:00,326.0,15.5,330.0,17.56,13.68,47.59359,-54.27349
2022-04-12 13:34:00+00:00,327.0,12.47,325.0,15.24,13.68,47.59359,-54.27349
2022-04-12 13:44:00+00:00,321.0,11.29,324.0,12.64,13.68,47.59359,-54.27349
2022-04-12 13:54:00+00:00,331.0,12.3,324.0,14.96,13.68,47.59359,-54.27349
2022-04-12 14:04:00+00:00,321.0,11.35,326.0,12.44,13.68,47.59359,-54.27349
2022-04-12 14:14:00+00:00,327.0,11.83,324.0,15.02,13.68,47.59359,-54.27349
2022-04-12 14:24:00+00:00,318.0,12.64,320.0,14.17,13.68,47.59359,-54.27349
2022-04-12 14:34:00+00:00,339.0,12.84,327.0,15.8,13.68,47.59359,-54.27349
2022-04-12 14:44:00+00:00,330.0,12.4,326.0,14.32,13.68,47.59359,-54.27349
2022-04-12 14:54:00+00:00,324.0,11.4,331.0,13.08,13.68,47.59359,-54.27349
2022-04-12 15:04:00+00:00,321.0,11.19,325.0,12.98,13.68,47.59359,-54.27349
2022-04-12 15:14:01+00:00,317.0,12.74,321.0,15.07,13.84,47.59359,-54.27349
2022-04-12 15:24:01+00:00,329.0,13.85,331.0,16.46,13.84,47.59359,-54.27349
2022-04-12 15:34:01+00:00,320.0,12.58,327.0,15.67,13.84,47.59359,-54.27349
2022-04-12 15:44:01+00:00,338.0,13.72,335.0,15.43,13.84,47.59359,-54.27349
2022-04-12 15:54:01+00:00,327.0,12.33,330.0,14.84,13.84,47.59359,-54.27349
2022-04-12 16:04:01+00:00,329.0,14.36,324.0,17.13,13.84,47.59359,-54.27349
2022-04-12 17:14:00+00:00,332.0,12.31,332.0,14.69,14.0,47.59359,-54.27349
2022-04-12 17:24:00+00:00,325.0,13.76,323.0,16.35,14.0,47.59359,-54.27349
2022-04-12 17:34:00+00:00,328.0,12.91,323.0,14.71,14.0,47.59359,-54.27349
2022-04-12 17:44:00+00:00,340.0,13.8,341.0,15.96,14.0,47.59359,-54.27349
2022-04-12 17:54:00+00:00,326.0,11.38,333.0,13.59,14.0,47.59359,-54.27349
2022-04-12 18:04:00+00:00,332.0,14.26,337.0,16.4,14.0,47.59359,-54.27349
2022-04-12 18:14:01+00:00,331.0,10.91,342.0,13.44,13.92,47.59359,-54.27349
2022-04-12 18:24:01+00:00,340.0,14.24,346.0,16.65,13.92,47.59359,-54.27349
2022-04-12 18:34:01+00:00,339.0,11.4,339.0,13.07,13.92,47.59359,-54.27349
2022-04-12 18:44:01+00:00,329.0,12.98,322.0,15.71,13.92,47.59359,-54.27349
2022-04-12 18:54:01+00:00,337.0,13.07,345.0,15.85,13.92,47.59359,-54.27349
2022-04-12 19:04:01+00:00,331.0,12.68,331.0,14.53,13.92,47.59359,-54.27349
2022-04-12 19:14:01+00:00,331.0,12.16,331.0,13.58,13.68,47.59359,-54.27349
2022-04-12 19:24:01+00:00,332.0,13.15,330.0,15.51,13.68,47.59359,-54.27349
2022-04-12 19:34:01+00:00,340.0,13.22,342.0,15.05,13.68,47.59359,-54.27349
2022-04-12 19:44:01+00:00,339.0,13.12,342.0,15.65,13.68,47.59359,-54.27349
2022-04-12 19:54:01+00:00,328.0,10.58,322.0,12.19,13.68,47.59359,-54.27349
2022-04-12 20:04:01+00:00,336.0,14.56,333.0,17.22,13.68,47.59359,-54.27349
2022-04-12 20:14:01+00:00,337.0,10.9,330.0,12.31,13.68,47.59359,-54.27349
2022-04-12 20:24:01+00:00,336.0,11.02,332.0,12.37,13.68,47.59359,-54.27349
2022-04-12 20:34:01+00:00,336.0,12.73,329.0,14.58,13.68,47.59359,-54.27349
2022-04-12 20:44:01+00:00,337.0,11.03,334.0,12.4,13.68,47.59359,-54.27349
2022-04-12 20:54:01+00:00,339.0,12.55,343.0,14.91,13.68,47.59359,-54.27349
2022-04-12 21:04:01+00:00,338.0,12.69,343.0,14.58,13.68,47.59359,-54.27349
2022-04-12 21:14:01+00:00,334.0,9.91,336.0,11.61,13.44,47.59359,-54.27349
2022-04-12 21:24:01+00:00,336.0,10.86,340.0,13.72,13.44,47.59359,-54.27349
2022-04-12 21:34:01+00:00,335.0,10.35,336.0,11.34,13.44,47.59359,-54.27349
2022-04-12 21:44:01+00:00,336.0,10.98,343.0,12.32,13.44,47.59359,-54.27349
2022-04-12 21:54:01+00:00,332.0,10.17,343.0,12.68,13.44,47.59359,-54.27349
2022-04-12 22:04:01+00:00,336.0,11.0,330.0,11.84,13.44,47.59359,-54.27349
2022-04-12 22:14:01+00:00,332.0,10.06,334.0,11.46,12.97,47.59359,-54.27349
2022-04-12 22:24:01+00:00,332.0,10.49,333.0,14.18,12.97,47.59359,-54.27349
2022-04-12 22:34:01+00:00,333.0,9.56,334.0,11.16,12.97,47.59359,-54.27349
2022-04-12 22:44:01+00:00,328.0,8.94,331.0,9.87,12.97,47.59359,-54.27349
2022-04-12 22:54:01+00:00,326.0,8.68,334.0,9.56,12.97,47.59359,-54.27349
2022-04-12 23:04:01+00:00,320.0,8.27,318.0,9.82,12.97,47.59359,-54.27349
2022-04-12 23:14:01+00:00,321.0,8.94,321.0,10.76,12.49,47.59359,-54.27349
2022-04-12 23:24:01+00:00,325.0,8.78,326.0,9.99,12.49,47.59359,-54.27349
2022-04-12 23:34:01+00:00,318.0,9.08,319.0,10.1,12.49,47.59359,-54.27349
2022-04-12 23:44:01+00:00,318.0,9.14,320.0,9.9,12.49,47.59359,-54.27349
2022-04-12 23:54:01+00:00,319.0,9.18,317.0,10.43,12.49,47.59359,-54.27349
